Regional Weather Roundup
Issued by NWS

Home | Current Version | Previous Version | Text Only | Print | Product List | Glossary Off
Versions: 1 2 3 4 5 6 7 8 9 10 11 12 13 14 15 16 17 18 19 20 21 22 23 24 25 26 27 28 29 30 31 32 33 34 35 36 37 38 39 40 41 42 43 44 45 46 47 48 49 50

000
ASUS43 KMKX 281800
RWRWI

WISCONSIN REGIONAL WEATHER ROUNDUP
NATIONAL WEATHER SERVICE MILWAUKEE/SULLIVAN WI
100 PM CDT TUE JUL 28 2015

NOTE: "FAIR" INDICATES FEW OR NO CLOUDS BELOW 12,000 FEET WITH NO
SIGNIFICANT WEATHER AND/OR OBSTRUCTIONS TO VISIBILITY.

WIZ001-002-006>008-014>016-023>028-281900-
NORTHWEST WISCONSIN

CITY           SKY/WX    TMP DP  RH WIND       PRES   REMARKS
SUPERIOR ARPT  CLOUDY    81  71  71 SW14G23   29.77R HX  85
ASHLAND        CLOUDY    80  69  69 S16G25    29.79S HX  83
6HR MIN TEMP:  70; 6HR MAX TEMP:  81;

HAYWARD        CLOUDY    82  67  60 S20G28    29.84R HX  84
6HR MIN TEMP:  71; 6HR MAX TEMP:  82; 6HR PCP:  0.01;

SIREN          CLOUDY    81  68  65 S14G23    29.83R HX  83
CUMBERLAND     CLOUDY    75  68  78 S15G21    29.85S
RICE LAKE      CLOUDY    77  68  73 S14       29.87R
CHETEK         CLOUDY    78  69  73 MISG      29.86R HX  80
LADYSMITH      PTSUNNY   78  67  69 S18G25    29.88S HX  80
EAU CLAIRE     CLOUDY    78  69  73 SW14      29.85R HX  80
6HR MIN TEMP:  70; 6HR MAX TEMP:  79; 6HR PCP:  0.29;

MENOMONIE      CLOUDY    78  71  78 S16       29.86R HX  80
NEW RICHMOND   CLOUDY    78  70  77 S13       29.85R
OSCEOLA        CLOUDY    80  70  71 S12       29.86R HX  83
$$

WIZ003>005-009-010-017-018-281900-
NORTH CENTRAL WISCONSIN

CITY           SKY/WX    TMP DP  RH WIND       PRES   REMARKS
MANITOWISH WTR CLOUDY    73  67  80 SE16G23   29.88F
ARBOR VITAE    CLOUDY    77  68  72 S14G20    29.90F
WOODRUFF       CLOUDY    77  68  72 S14G20    29.90F
RHINELANDER    CLOUDY    79  65  62 S14G21    29.92F HX  81
6HR MIN TEMP:  66; 6HR MAX TEMP:  79;

EAGLE RIVER    CLOUDY    76  61  59 S13G18    29.92F
LAND O LAKES   CLOUDY    76  63  62 S8G16     29.94F
PHILLIPS       CLOUDY    78  68  72 S12G18    29.87R HX  80
TOMAHAWK       CLOUDY    77  66  68 S7        29.90F
MEDFORD        PTSUNNY   76  69  78 S17G25    29.88S
MERRILL        NOT AVBL
$$

WIZ029-030-035-036-043>047-281900-
CENTRAL WISCONSIN

CITY           SKY/WX    TMP DP  RH WIND       PRES   REMARKS
WAUSAU         CLOUDY    81  66  60 S14       29.89F HX  83
6HR MIN TEMP:  68; 6HR MAX TEMP:  81;

MOSINEE        PTSUNNY   77  68  73 S12       29.92F
MARSHFIELD     CLOUDY    77  68  73 S13G26    29.88F
6HR MIN TEMP:  68; 6HR MAX TEMP:  77; 6HR PCP: TRACE;

STEVENS POINT  CLOUDY    77  64  63 S14       29.94F
WAUPACA        CLOUDY    86  64  47 SE9       29.96F HX  88
WAUTOMA        NOT AVBL
WISC RAPIDS    CLOUDY    77  66  68 S16G23    29.88F
6HR MIN TEMP:  69; 6HR MAX TEMP:  79; 6HR PCP: TRACE;

CAMP DOUGLAS   NOT AVBL
$$

WIZ011>013-019>022-031-037>040-048>050-281900-
NORTHEAST WISCONSIN

CITY           SKY/WX    TMP DP  RH WIND       PRES   REMARKS
ANTIGO         CLOUDY    76  65  69 S12G23    29.95F
SHAWANO        CLOUDY    83  64  52 S6        29.96F HX  84
OCONTO         CLOUDY    82  67  62 S6        29.97F HX  84
STURGEON BAY   CLOUDY    84  63  48 S13G22    30.00F HX  85
6HR MIN TEMP:  70; 6HR MAX TEMP:  84;

GREEN BAY      CLOUDY    84  65  52 S10       29.95F HX  86
6HR MIN TEMP:  66; 6HR MAX TEMP:  85;

MANITOWOC      NOT AVBL
APPLETON       PTSUNNY   84  61  45 S10       29.97F HX  84
CLINTONVILLE   CLOUDY    82  63  51 S10       29.96F HX  83
OSHKOSH        CLOUDY    86  65  49 S16       29.95F HX  88
6HR MIN TEMP:  67; 6HR MAX TEMP:  86;

$$

WIZ032>034-041-042-053>061-281900-
SOUTHWEST WISCONSIN

CITY           SKY/WX    TMP DP  RH WIND       PRES   REMARKS
LA CROSSE      CLOUDY    75  71  87 SW8       29.86S
6HR MIN TEMP:  71; 6HR MAX TEMP:  75; 6HR PCP:  0.72;

SPARTA         CLOUDY    72  69  92 E14       29.86F
VIROQUA        CLOUDY    70  70 100 SE15G23   29.88F
BOSCOBEL       RAIN      75  72  90 SE7       29.89F FOG
6HR MIN TEMP:  72; 6HR MAX TEMP:  78; 6HR PCP:  0.16;

PRAIRIE DU CHI LGT RAIN  73  70  89 E3        29.90F
PLATTEVILLE    CLOUDY    77  73  88 S12       29.99S
$$

WIZ056-057-062-063-064-067-068-281900-
SOUTH CENTRAL WISCONSIN

CITY           SKY/WX    TMP DP  RH WIND       PRES   REMARKS
REEDSBURG      CLOUDY    80  71  74 S7        29.96F HX  83
BARABOO/DELLS  CLOUDY    82  67  59 S8        29.96F HX  85
LONE ROCK      NOT AVBL
MINERAL POINT  CLOUDY    81  72  74 S13       29.98F HX  84
MADISON        PTSUNNY   83  69  62 S10       29.96F HX  86
6HR MIN TEMP:  70; 6HR MAX TEMP:  84;

MIDDLETON      PTSUNNY   83  70  64 S6        29.97F HX  86
WATERTOWN      PTSUNNY   85  69  58 S5        29.98F HX  89
MONROE         CLOUDY    81  72  74 S10       30.00S HX  84
JANESVILLE     PTSUNNY   88  70  55 SW12      29.98F HX  92
$$

WIZ051-052-058>065-066-070>072-281900-
SOUTHEAST WISCONSIN

CITY           SKY/WX    TMP DP  RH WIND       PRES   REMARKS
MILWAUKEE      MOSUNNY   84  66  54 SE12      29.98F HX  86
6HR MIN TEMP:  71; 6HR MAX TEMP:  86;

WAUKESHA       SUNNY     86  63  45 SE7       30.00F HX  87
MILWAUKEE/TIMM SUNNY     86  61  42 SE9       29.99F HX  86
RACINE         MOSUNNY   81  68  64 SE9       30.01F HX  84
6HR MIN TEMP:  69; 6HR MAX TEMP:  83;

BURLINGTON     MOSUNNY   85  67  55 S5        29.99F HX  87
KENOSHA        SUNNY     85  66  53 SE10      29.99F HX  87
6HR MIN TEMP:  66; 6HR MAX TEMP:  86;

FOND DU LAC    PTSUNNY   86  65  49 S12       29.96F HX  88
6HR MIN TEMP:  68; 6HR MAX TEMP:  86;

SHEBOYGAN      PTSUNNY   82  65  56 S10       29.98F HX  84
6HR MIN TEMP:  64; 6HR MAX TEMP:  85;

WEST BEND      PTSUNNY   84  59  42 CALM      29.99F HX  84
JUNEAU         MOSUNNY   83  66  56 SE7       29.99F HX  85
$$

LSZ147-162-281900-
LAKE SUPERIOR

STATION/POSITION TIME  TEMP    WIND        PRES    WAVE
                       AIR SEA DIR/SP/G            HT/PER
                 (UTC) (F)     (DEG/KT/KT) (MB)    (FT/S)
W MID LAKE BUOY  1650   67 62  120/ 14/ 16 1010.1F   1/ 3
DEVILS ISLAND    1700   75     160/  6/ 11 1008.5R
SAXON HARBOR     1720   79                 1008.8R
$$

LMZ867-665-643>646-281900-
LAKE MICHIGAN

STATION/POSITION TIME  TEMP    WIND        PRES    WAVE
                       AIR SEA DIR/SP/G            HT/PER
                 (UTC) (F)     (DEG/KT/KT) (MB)    (FT/S)
CHAMBERS ISLAND  1700   81     180/  4/  9 1015.6F
S GREEN BAY BUOY 1700   79 76  200/  8/ 10 1017.1F
N MID LAKE BUOY  1650   72 71  220/  6/  8 1016.2R   0
NORTHPORT PIER   1700   75     140/  8/ 11 1015.9S
SISTER BAY       1744   85     200/ 11/ 16   N/A
ALGOMA LAKESHORE 1727          210/  5/  6   N/A
KEWAUNEE LAKESHO 1700   68     170/  6/  9 1015.7F
SHEBOYGAN LAKESH 1700   72     140/ 11/ 12 1016.4F
PORT WASHINGTON  1700   75     120/  3/  4 1016.9
ATWATER BUOY     1700   71     120/ 10/ 12 1017.4F
MILWAUKEE LAKESH 1700   71     110/ 11/ 11   N/A
KENOSHA   LAKESH 1700   77     130/  5/  6 1015.6F
$$

TC  - TEMPERATURE IN CELSIUS
VSB - VISIBILITY IN STATUTE MILES
WCI - WIND CHILL INDEX
HX  - HEAT INDEX



USA.gov is the U.S. government's official web portal to all federal, state and local government web resources and services.